Regional Weather Roundup
Issued by NWS Sterling, VA

Home | Current Version | Previous Version | Text Only | Print | Product List | Glossary On
Versions: 1 2 3 4 5 6 7 8 9 10 11 12 13 14 15 16 17 18 19 20 21 22 23 24 25 26 27 28 29 30 31 32 33 34 35 36 37 38 39 40 41 42 43 44 45 46 47 48 49 50
000
ASUS41 KLWX 290710
RWRLWX

REGIONAL WEATHER ROUNDUP
NATIONAL WEATHER SERVICE BALTIMORE MD/WASHINGTON DC
200 AM EST SAT NOV 29 2014

Note: "FAIR" indicates few or no clouds below 12,000 feet
with no significant weather and/or obstructions to visibility.
 TC=TEMPERATURE CELSIUS

 * =Non NWS site. Station does not report precipitation (e.g. rain,
    snow, etc.), thunder, or fog.

DCZ001-MDZ009-015-VAZ040>042-051-053>054-290800-
WASHINGTON METRO

CITY           SKY/WX    TMP DP  RH WIND       PRES   REMARKS
WASHINGTON NAT CLOUDY    36  18  48 E5        30.33R
DULLES         CLOUDY    28  24  85 CALM      30.30R
ANDREWS AFB    CLOUDY    28  23  79 CALM      30.31R
FT BELVOIR     CLOUDY    27  24  87 CALM      30.33R
QUANTICO       CLOUDY    30  24  78 NW6       30.34R
COLLEGE PARK*  MOCLDY    30  27  86 CALM      30.31R
LEESBURG*      CLOUDY    30  28  93 CALM      30.30S
MANASSAS*      CLOUDY    28  27  93 CALM      30.31R
GAITHERSBURG*  CLOUDY    27  19  74 SE3       30.33R

$$

MDZ006>007-011-014-290800-
BALTIMORE METRO

CITY           SKY/WX    TMP DP  RH WIND       PRES   REMARKS
BWI AIRPORT    MOCLDY    26  21  81 CALM      30.30S
MD SCIENCE CTR   N/A     33  18  53 MISG      30.32R
MARTIN STATE   MOCLDY    30  23  74 CALM      30.33S
ANNAPOLIS      PTCLDY    30  25  81 CALM      30.32R
FORT MEADE*    PTCLDY    27  23  86 CALM      30.33S

$$

MDZ012-015-019>023-290800-
MARYLAND EASTERN SHORE

CITY           SKY/WX    TMP DP  RH WIND       PRES   REMARKS
OCEAN CITY     CLEAR     23  20  88 CALM      30.33R
SALISBURY      FAIR      25  19  78 CALM      30.33R
BAY BRIDGE AP*   N/A     30  21  69 SE3       30.33R
CAMBRIDGE*     CLEAR     28  23  80 CALM      30.33R
EASTON*        CLEAR     27  24  89 CALM      30.37R

$$

MDZ017>025-290800-
SOUTHERN MARYLAND

CITY           SKY/WX    TMP DP  RH WIND       PRES   REMARKS
PATUXENT RIVER MOCLDY    27  22  81 W3        30.32S
ST INIGOES     MOCLDY    28  22  78 CALM      30.32R
LEONARDTOWN*   MOCLDY    27  23  86 CALM      30.33S

$$

MDZ003>005-290800-
NORTH CENTRAL MARYLAND

CITY           SKY/WX    TMP DP  RH WIND       PRES   REMARKS
FREDERICK*     CLOUDY    30  23  74 SW3       30.33R
HAGERSTOWN APT CLOUDY    29  18  63 CALM      30.26R
WESTMINSTER*   MOCLDY    25  19  80 CALM      30.26S

$$

MDZ501>502-290800-
WESTERN MARYLAND

CITY           SKY/WX    TMP DP  RH WIND       PRES   REMARKS
OAKLAND*       CLOUDY    23  12  63 S9        30.09R WCI  13
CUMBERLAND*    CLOUDY    30  23  74 CALM      30.28R

$$

VAZ025>031-290800-
SHENANDOAH VALLEY

CITY           SKY/WX    TMP DP  RH WIND       PRES   REMARKS
WINCHESTER*    CLOUDY    30  19  64 CALM      30.26R
FRONT ROYAL*   PTSUNNY   27  23  86 CALM      30.25S
LURAY*         FAIR      28  27  93 CALM      30.24S
NEW MARKET*    FAIR      25  22  89 CALM      30.23F
STAUNTON*      MOCLDY    24  19  83 CALM      30.24R
WAYNESBORO*    CLOUDY    24  18  77 CALM      30.20S

$$

WVZ021-048>050-054>055-290800-
EASTERN WEST VIRGINIA PANHANDLE

CITY           SKY/WX    TMP DP  RH WIND       PRES   REMARKS
MARTINSBURG    CLOUDY    28  20  71 SW3       30.28R
PETERSBURG*    CLOUDY    25  19  77 CALM      30.23S

$$

VAZ036>039-050-290800-
CENTRAL FOOTHILLS

CITY           SKY/WX    TMP DP  RH WIND       PRES   REMARKS
CHARLOTTESVILL PTCLDY    27  20  75 N3        30.26F
CULPEPER*      CLOUDY    27  25  93 CALM      30.30S
ORANGE*        PTCLDY    30  27  86 CALM      30.30S
GORDONSVILLE*  FAIR      26  24  90 CALM      30.27F
WARRENTON*     FAIR      27  27 100 CALM      30.29S

$$

VAZ055>057-290800-
NORTH AND CENTRAL PIEDMONT

CITY           SKY/WX    TMP DP  RH WIND       PRES   REMARKS
FREDERICKSBRG* MOCLDY    29  25  85 CALM      30.32R
STAFFORD*      MOCLDY    27  27 100 CALM      30.36R

$$

NCZ024-NYZ072-PAZ021-071-VAZ022-071-290800-
OTHER REGIONAL OBSERVATIONS

CITY           SKY/WX    TMP DP  RH WIND       PRES   REMARKS
NEW YORK CITY  PTCLDY    28  12  51 W3        30.32R
PHILADELPHIA   MOCLDY    28  16  60 W6        30.33R
PITTSBURGH     CLOUDY    28  19  69 SE6       30.16S
ROANOKE        CLEAR     25  20  81 CALM      30.25S
RICHMOND       PTCLDY    27  22  81 SE5       30.30F
RALEIGH        PTCLDY    29  23  78 CALM      30.30R

$$

ANZ530>537-290800-
MARINE OBSERVATIONS

STATION/POSITION TIME  TEMP    WIND        PRES
                       AIR SEA DIR/SP/G
                 (UTC) (F)     (DEG/KT/KT) (MB)
THOMAS PT LIGHT  0700   35 45  360/  4/  5 1028.0R
BALT KEY BRIDGE  0700   34     360/  4/  5 1026.4S
COVE POINT       0700   35     330/  4/  5 1026.4S
LEWISETTA        0700   32 44  260/  2/  2 1026.3R
SOLOMONS ISLAND  0700      47                N/A
PINEY POINT      0700           40/  5/  5   N/A

$$



USA.gov is the U.S. government's official web portal to all federal, state and local government web resources and services.